Regional Weather Roundup
Issued by NWS

Home | Current Version | Previous Version | Text Only | Print | Product List | Glossary On
Versions: 1 2 3 4 5 6 7 8 9 10 11 12 13 14 15 16 17 18 19 20 21 22 23 24 25 26 27
000
ASUS42 KTBW 310716
RWRFL
FLORIDA REGIONAL WEATHER ROUNDUP
NATIONAL WEATHER SERVICE TAMPA BAY RUSKIN FL
300 AM EDT SUN JUL 31 2016

NOTE: "FAIR" INDICATES FEW OR NO CLOUDS BELOW 12,000 FEET WITH NO
SIGNIFICANT WEATHER AND/OR OBSTRUCTIONS TO VISIBILITY.

FLZ001>010-012>015-112-114-115-310800-
PANHANDLE FLORIDA

CITY           SKY/WX    TMP DP  RH WIND       PRES   REMARKS
PENSACOLA      CLEAR     81  76  84 W6        30.01F
PENSACOLA NAS  CLEAR     81  76  84 NW3       30.00F
MILTON NAS     CLEAR     77  76  96 CALM      30.02
CRESTVIEW      CLEAR     76  74  93 CALM      30.03F
DUKE FIELD     FAIR      76  74  93 CALM      30.01F
VALPARAISO     PTCLDY    79  75  87 NE1       30.02R
MARY ESTHER    PTCLDY    78  75  89 CALM      30.00S
TRI COUNTY     FAIR      75  74  96 CALM      30.03S
PANAMA CITY    FAIR      78  76  93 NE3       30.01S
TYNDALL AFB    PTCLDY    84  75  75 W5        30.02S
APALACHICOLA   MOCLDY    79  78  97 CALM      30.01S

STATION/POSITION SKY/WX   TEMP    WIND        PRES    WAVE   SWELL
                          AIR SEA DIR/SP/G            HT/PER HT/PER
                          (F)     (DEG/KT/KT) (MB)    (FT/S) (FT/S)
30.1N   87.6W              86 88  250/ 12/ 14 1016.2F   1/ 3
29.2N   88.2W              86 89  220/  8/ 12 1016.4F
28.8N   86.0W              85 87  250/  6/  8 1016.7F   1
PANAMA CITY BEAC           86 89  270/ 11/ 12 1016.7F
TOWER C                    85     280/  8/ 10 1016.9F
28.5N   84.5W              86 89  210/  4/  4 1016.6F   1

$$
FLZ011-016>038-118-127-128-134-139-239-310800-
NORTH FLORIDA

CITY           SKY/WX    TMP DP  RH WIND       PRES   REMARKS
MARIANNA       CLEAR     77  76  96 CALM      30.02F
TALLAHASSEE    CLEAR     79  76  90 CALM      30.02S
PERRY          PTCLDY    78  76  93 CALM      30.02F
LIVE OAK         N/A     77  77 100 CALM      30.05S
CROSS CITY       N/A     77  74  90 CALM      30.02F
LAKE CITY      FAIR      73  73 100 CALM      30.04F
GAINESVILLE    CLEAR     76  72  87 CALM      30.03F
WILLISTON      FAIR      79  77  94 CALM      30.04F
MAYPORT NAS    CLEAR     79  75  87 SW8       30.03F
JACKSONVILLE   PTCLDY    78  75  90 SW6       30.03S
JAX NAS        PTCLDY    83  74  74 S7        30.03F
JAX CECIL      CLOUDY    73  73 100 CALM      30.03F
FERNANDINA BEA FAIR      82  77  83 S6        30.02S
ST AUGUSTINE   CLEAR     79  74  84 SW5       30.04F
PALM COAST     FAIR      76  76  99 S3        30.03S

STATION/POSITION SKY/WX   TEMP    WIND        PRES    WAVE   SWELL
                          AIR SEA DIR/SP/G            HT/PER HT/PER
                          (F)     (DEG/KT/KT) (MB)    (FT/S) (FT/S)
SHELL POINT                83     270/  5/  8 1015.5
KEATON BEACH               86     260/  6/  8 1016.1F
CEDAR KEY                  86     210/  2/  3 1017.2F
FERNANDINA                 81 88  160/  5/  9 1017.0F
30.7N   81.3W                 85                N/A     3/ 4
MAYPORT                    81 88  190/  4/  6 1017.5F
31.4N   80.9W              85 87  180/ 17/ 21 1016.3F   4/ 5
ST AUGUSTINE               80 85  200/  7/  9 1017.8F

$$
FLZ040-043>046-052-053-057-058-063-144-310800-
INTERIOR CENTRAL FLORIDA

CITY           SKY/WX    TMP DP  RH WIND       PRES   REMARKS
OCALA          CLEAR     75  73  94 CALM      30.03F
THE VILLAGES     N/A     77  77 100 CALM      29.93F
LEESBURG       CLEAR     80  75  84 S5        30.03F
SANFORD        CLEAR     79  73  82 SE6       30.03F
ORLANDO EXEC   CLEAR     77  74  90 SE7       30.03F
ORLANDO INTL   CLEAR     76  73  91 S3        30.03F
KISSIMMEE      CLEAR     77  75  93 CALM      30.04F
WINTER HAVEN   CLEAR     77  73  87 SW3       30.04F
LAKELAND       CLEAR     75  73  94 CALM      30.04F
BARTOW         FAIR      73 N/A N/A CALM      30.04F
OKEECHOBEE     CLEAR     72  72 100 CALM      30.04F

$$
FLZ041-047-054-059-064-141-147-310800-
EAST CENTRAL FLORIDA

CITY           SKY/WX    TMP DP  RH WIND       PRES   REMARKS
DAYTONA BEACH  CLEAR     79  75  87 S5        30.03F
JFK SPACE CTR  CLEAR     79  74  85 S3        30.02F
CAPE CANAVERAL CLEAR     80  76  87 S6        30.02F
PATRICK AFB    CLEAR     82  76  83 E5        30.02F
MELBOURNE      CLEAR     80  75  84 S5        30.03F
VERO BEACH     CLEAR     79  75  87 S5        30.04F
FT PIERCE      CLEAR     74  73  97 CALM      30.03F
STUART         CLEAR     81  77  89 CALM      30.04F

STATION/POSITION SKY/WX   TEMP    WIND        PRES    WAVE   SWELL
                          AIR SEA DIR/SP/G            HT/PER HT/PER
                          (F)     (DEG/KT/KT) (MB)    (FT/S) (FT/S)
28.5N   80.2W              84 84  170/  8/ 10 1017.6F
28.9N   78.5W              85 87  150/ 12/ 14 1017.6F
TRIDENT PIER               83 86  160/  7/  9 1017.5F
28.4N   80.5W                 82                N/A     2/ 3
27.5N   80.2W                 83                N/A     1/ 3

$$
FLZ050-056-061-142-242-148-248-149-249-151-251-155-255-
160-260-310800-
WEST CENTRAL FLORIDA

CITY           SKY/WX    TMP DP  RH WIND       PRES   REMARKS
CRYSTAL RIVER  FAIR      77  75  94 CALM      30.02F
INVERNESS      FAIR      75  75 100 CALM      30.03F
BROOKSVILLE    CLEAR     76  74  93 CALM      30.03F
ZEPHYRHILLS    FAIR      54  54 100 CALM      30.04F
CLEARWATER AIR FAIR      77  73  88 CALM      30.02F
ST PETE CLEARW CLEAR     78  71  79 CALM      30.02F
TAMPA INTL     CLEAR     80  75  84 CALM      30.03F
TAMPA EXEC     CLEAR     77  73  88 CALM      30.03F
PLANT CITY     CLEAR     77  75  94 CALM      30.04F
MACDILL AFB    CLEAR     80  79  97 SE2       30.02F
PETER O KNIGHT CLEAR     81  77  89 CALM      30.03F
ST PETERSBURG  CLEAR     82  74  76 S7        30.00F
SARASOTA       CLEAR     78  73  84 E5        30.01F
VENICE         NOT AVBL

STATION/POSITION SKY/WX   TEMP    WIND        PRES    WAVE   SWELL
                          AIR SEA DIR/SP/G            HT/PER HT/PER
                          (F)     (DEG/KT/KT) (MB)    (FT/S) (FT/S)
27.3N   84.2W                 88                N/A     1
CLEARWATER BEACH           81 89  130/  3/  5 1017.2F
MIDDLE TAMPA BAY                  160/  5/  7 1017.5F
VENICE                     79 90   90/  5/  6 1016.2F

$$
FLZ066-069-070-075>078-162-262-165-265-310800-
SOUTHWEST FLORIDA AND KEYS

CITY           SKY/WX    TMP DP  RH WIND       PRES   REMARKS
PUNTA GORDA    CLEAR     76  75  97 CALM      30.04F
FT MYERS       CLEAR     74  72  93 SE3       30.02F
SOUTHWEST INTL CLEAR     74  71  91 CALM      30.03F
NAPLES         CLEAR     75  73  93 E6        30.02F
MARCO ISLAND   CLEAR    N/A N/A N/A NE3       30.02F
MARATHON       PTCLDY    82  74  76 E5        30.00F
KEY WEST NAS   PTCLDY    82  74  76 E8        30.00F
KEY WEST INTL  PTCLDY    83  76  79 E8        30.01F

STATION/POSITION SKY/WX   TEMP    WIND        PRES    WAVE   SWELL
                          AIR SEA DIR/SP/G            HT/PER HT/PER
                          (F)     (DEG/KT/KT) (MB)    (FT/S) (FT/S)
NAPLES                        90              1017.0F
26.0N   85.6W              84 87   70/  4/  4 1016.9F   1
DRY TORTUGAS               84     140/  7/  8 1016.3F
SAND KEY                   83     110/ 10/ 11 1016.5F
LONG KEY                   84 89   90/ 10/ 12 1016.3F

$$
FLZ067-068-071>074-168-172>174-310800-
SOUTHEAST FLORIDA

CITY           SKY/WX    TMP DP  RH WIND       PRES   REMARKS
W PALM BEACH   PTCLDY    80  73  79 NW3       30.04F
FT LAUDER-EXEC PTCLDY    80  74  81 CALM      30.02F
FT LAUDERDALE  PTCLDY    82  73  74 SE3       30.02F
POMPANO BEACH  PTCLDY    82  73  74 SE3       30.02F
PEMBROKE PINES CLEAR     81  73  76 E3        30.04F
OPA LOCKA      CLEAR     80  73  79 E3        30.03F
MIAMI          MOCLDY    82  73  74 E6        30.03S
WEST KENDALL   PTCLDY    78  75  90 CALM      30.02F
HOMESTEAD      CLEAR     80  75  86 CALM      30.02F

STATION/POSITION SKY/WX   TEMP    WIND        PRES    WAVE   SWELL
                          AIR SEA DIR/SP/G            HT/PER HT/PER
                          (F)     (DEG/KT/KT) (MB)    (FT/S) (FT/S)
PORT EVERGLADES            83     160/  3/  5 1017.0F
VIRGINIA KEY               83 91   80/  4/  5 1017.4F
LAKE WORTH                        160/  7/  8   N/A
FOWEY ROCKS                83 85  100/  9/ 10 1017.1F
SETTLEMENT POINT           81     140/  8/  9 1017.7F

$$





USA.gov is the U.S. government's official web portal to all federal, state and local government web resources and services.